Time,TemperatureF,DewpointF,PressureIn,WindDirection,WindDirectionDegrees,WindSpeedMPH,WindSpeedGustMPH,Humidity,HourlyPrecipIn,Conditions,Clouds,dailyrainin,SoftwareType,DateUTC
2013-08-24 00:22:00,73.0,44.0,30.06,West,279,0.0,0.0,36,0.00,,,-99.99,,2013-08-24 06:22:00,
2013-08-24 00:52:00,72.0,46.0,30.07,SW,217,0.0,3.0,40,0.00,,,-99.99,,2013-08-24 06:52:00,
2013-08-24 01:12:00,72.0,46.0,30.07,SW,217,0.0,0.0,40,0.00,,,-99.99,,2013-08-24 07:12:00,
2013-08-24 01:22:00,72.0,47.0,30.07,SW,217,0.0,0.0,41,0.00,,,-99.99,,2013-08-24 07:22:00,
2013-08-24 01:53:00,71.0,47.0,30.08,WNW,293,3.0,3.0,43,0.00,,,-99.99,,2013-08-24 07:53:00,
2013-08-24 02:22:00,70.0,47.0,30.08,ENE,64,2.0,0.0,44,0.00,,,-99.99,,2013-08-24 08:22:00,
2013-08-24 02:52:00,71.0,47.0,30.08,East,88,7.0,7.0,42,0.00,,,-99.99,,2013-08-24 08:52:00,
2013-08-24 03:22:00,72.0,47.0,30.09,South,191,4.0,6.0,41,0.00,,,-99.99,,2013-08-24 09:22:00,
2013-08-24 03:53:00,72.0,48.0,30.09,NW,306,2.0,7.0,43,0.00,,,-99.99,,2013-08-24 09:53:00,
2013-08-24 04:23:00,71.0,49.0,30.09,SSE,161,0.0,0.0,45,0.00,,,-99.99,,2013-08-24 10:23:00,
2013-08-24 04:53:00,70.0,49.0,30.09,SSE,161,0.0,1.0,48,0.00,,,-99.99,,2013-08-24 10:53:00,
2013-08-24 05:22:00,70.0,50.0,30.11,North,357,0.0,0.0,49,0.00,,,-99.99,,2013-08-24 11:22:00,
2013-08-24 05:52:00,68.0,52.0,30.13,North,350,8.0,8.0,56,0.00,,,-99.99,,2013-08-24 11:52:00,
2013-08-24 06:21:00,67.0,53.0,30.13,NNE,18,4.0,5.0,61,0.00,,,-99.99,,2013-08-24 12:21:00,
2013-08-24 06:52:00,67.0,53.0,30.14,North,358,0.0,1.0,61,0.00,,,-99.99,,2013-08-24 12:52:00,
2013-08-24 07:22:00,66.0,53.0,30.15,North,11,2.0,4.0,64,0.00,,,-99.99,,2013-08-24 13:22:00,
2013-08-24 07:52:00,67.0,54.0,30.15,NNW,336,4.0,4.0,62,0.00,,,-99.99,,2013-08-24 13:52:00,
2013-08-24 08:22:00,68.0,53.0,30.15,North,8,0.0,0.0,58,0.00,,,-99.99,,2013-08-24 14:22:00,
2013-08-24 08:52:00,71.0,50.0,30.14,SW,223,6.0,7.0,48,0.00,,,-99.99,,2013-08-24 14:52:00,
2013-08-24 09:22:00,71.0,50.0,30.14,SSW,208,7.0,9.0,47,0.00,,,-99.99,,2013-08-24 15:22:00,
2013-08-24 09:54:00,72.0,49.0,30.13,WSW,243,6.0,9.0,45,0.00,,,-99.99,,2013-08-24 15:54:00,
2013-08-24 10:23:00,74.0,50.0,30.13,South,177,4.0,10.0,43,0.00,,,-99.99,,2013-08-24 16:23:00,
2013-08-24 10:53:00,74.0,49.0,30.12,SSW,203,6.0,10.0,42,0.00,,,-99.99,,2013-08-24 16:53:00,
2013-08-24 11:23:00,75.0,50.0,30.11,SSW,213,7.0,10.0,41,0.00,,,-99.99,,2013-08-24 17:23:00,
2013-08-24 11:52:00,76.0,50.0,30.10,West,270,8.0,8.0,40,0.00,,,-99.99,,2013-08-24 17:52:00,
2013-08-24 12:22:00,77.0,49.0,30.09,West,262,6.0,12.0,37,0.00,,,-99.99,,2013-08-24 18:22:00,
2013-08-24 12:53:00,77.0,49.0,30.08,South,185,9.0,9.0,38,0.00,,,-99.99,,2013-08-24 18:53:00,
2013-08-24 13:21:00,78.0,50.0,30.06,WNW,291,8.0,9.0,37,0.00,,,-99.99,,2013-08-24 19:21:00,
2013-08-24 13:52:00,78.0,47.0,30.06,SW,233,7.0,10.0,34,0.00,,,-99.99,,2013-08-24 19:52:00,
2013-08-24 14:22:00,80.0,47.0,30.05,SW,223,8.0,12.0,32,0.00,,,-99.99,,2013-08-24 20:22:00,
2013-08-24 14:52:00,81.0,49.0,30.03,SSW,198,5.0,16.0,33,0.00,,,-99.99,,2013-08-24 20:52:00,
2013-08-24 15:54:00,81.0,47.0,30.01,SSE,164,9.0,16.0,31,0.00,,,-99.99,,2013-08-24 21:54:00,
2013-08-24 16:23:00,79.0,48.0,30.00,ENE,63,1.0,14.0,34,0.00,,,-99.99,,2013-08-24 22:23:00,
2013-08-24 16:53:00,80.0,49.0,30.00,SE,136,8.0,13.0,34,0.00,,,-99.99,,2013-08-24 22:53:00,
2013-08-24 17:22:00,80.0,47.0,29.99,South,177,11.0,17.0,32,0.00,,,-99.99,,2013-08-24 23:22:00,
2013-08-24 17:53:00,75.0,51.0,30.01,SE,142,9.0,24.0,43,0.00,,,-99.99,,2013-08-24 23:53:00,
2013-08-24 18:22:00,79.0,48.0,30.00,South,188,9.0,11.0,34,0.00,,,-99.99,,2013-08-25 00:22:00,
2013-08-24 18:52:00,76.0,51.0,30.01,South,175,12.0,25.0,42,0.00,,,-99.99,,2013-08-25 00:52:00,
2013-08-24 19:22:00,77.0,49.0,30.02,ESE,108,3.0,5.0,38,0.00,,,-99.99,,2013-08-25 01:22:00,
2013-08-24 19:42:00,77.0,48.0,30.03,SSW,195,13.0,15.0,36,0.00,,,-99.99,,2013-08-25 01:42:00,
2013-08-24 19:52:00,75.0,50.0,30.05,SW,234,8.0,17.0,41,0.00,,,-99.99,,2013-08-25 01:52:00,
2013-08-24 20:22:00,73.0,53.0,30.08,West,268,8.0,15.0,49,0.00,,,-99.99,,2013-08-25 02:22:00,
2013-08-24 20:52:00,70.0,56.0,30.10,North,11,2.0,6.0,61,0.00,,,-99.99,,2013-08-25 02:52:00,
2013-08-24 21:23:00,70.0,54.0,30.12,ENE,78,7.0,8.0,57,0.00,,,-99.99,,2013-08-25 03:23:00,
2013-08-24 21:54:00,71.0,54.0,30.13,ESE,104,4.0,7.0,55,0.00,,,-99.99,,2013-08-25 03:54:00,
2013-08-24 22:02:00,-999.0,-99.9,30.14,SE,135,5.0,5.0,-999,-99.99,,,-99.99,,2013-08-25 04:02:00,
2013-08-24 22:25:00,72.0,52.0,30.14,SSE,154,2.0,3.0,50,0.00,,,-99.99,,2013-08-25 04:25:00,
2013-08-24 22:54:00,74.0,51.0,30.15,South,185,0.0,3.0,44,0.00,,,-99.99,,2013-08-25 04:54:00,
2013-08-24 23:22:00,67.0,56.0,30.16,North,358,6.0,7.0,67,0.00,,,-99.99,,2013-08-25 05:22:00,
2013-08-24 23:52:00,69.0,52.0,30.16,NNE,33,3.0,6.0,55,0.00,,,-99.99,,2013-08-25 05:52:00,